Weather Roundup
Issued by NWS Corpus Christi, TX

Home | Current Version | Previous Version | Text Only | Print | Product List | Glossary On
Versions: 1 2 3 4 5 6 7 8 9 10 11 12 13 14 15 16 17 18 19 20 21 22 23 24 25 26 27 28 29 30 31 32 33 34 35 36 37 38 39 40 41 42 43 44 45 46 47 48 49 50
000
ASUS44 KCRP 310910
HRRCRP

SOUTH TEXAS REGIONAL WEATHER ROUNDUP
NATIONAL WEATHER SERVICE CORPUS CHRISTI TX
400 AM CDT SUN AUG 31 2014


TXZ229>244-311000-
...CORPUS CHRISTI AREA OBSERVATIONS...

CITY           SKY/WX    TMP DP  RH WIND       PRES   REMARKS
CORPUS CHRISTI PTCLDY    78  76  93 CALM      29.92F
NAS CORPUS CHR PTCLDY    83  79  88 S8        29.92S HX  94
ROCKPORT       PTCLDY    83  77  82 S6        29.92F HX  92
KINGSVILLE NAS MOCLDY    76  76 100 CALM      29.92S
ALICE          PTCLDY    76  75  97 CALM      29.92F
FALFURRIAS     PTCLDY    68  66  92 CALM      29.92R
$$

...VICTORIA AREA OBSERVATIONS...

CITY           SKY/WX    TMP DP  RH WIND       PRES   REMARKS
VICTORIA       PTCLDY    78  75  90 SE5       29.94F
BEEVILLE       FAIR      75  75 100 SE3       29.93F
PLEASANTON     CLEAR     75  72  90 CALM      29.94F
SAN ANTONIO    PTCLDY    78  72  81 S7        29.96F
$$

...LAREDO AREA OBSERVATIONS...

CITY           SKY/WX    TMP DP  RH WIND       PRES   REMARKS
LAREDO         MOCLDY    81  75  81 SE7       29.94F
COTULLA        PTCLDY    78  72  81 SE7       29.93F
DEL RIO        CLEAR     82  69  64 SE7       29.92F
MCALLEN        PTCLDY    80  78  94 E7        29.91F
HEBBRONVILLE   MOCLDY    79  75  88 SE7       29.94F
$$

...OTHER TEXAS OBSERVATIONS...

CITY           SKY/WX    TMP DP  RH WIND       PRES   REMARKS
BROWNSVILLE    MOCLDY    79  79 100 CALM      29.91S
HOUSTON        PTCLDY    75  73  94 CALM      29.95F
COL. STATION   PTCLDY    74  71  91 SE6       29.95F
AUSTIN         PTCLDY    74  71  91 S3        29.95F
WACO           CLEAR     78  72  81 S14       29.94F
FORT WORTH     CLEAR     77  70  79 SE7       29.92S
WICHITA FALLS  CLEAR     74  69  85 S8        29.89S
LUBBOCK        PTCLDY    75  61  61 S15       29.98F
EL PASO        CLEAR     77  47  34 W7        30.00R
$$

...MARINE OBSERVATIONS...

STATION/POSITION TIME  SKY/WX   TEMP    WIND        PRES    VSBY  WAVE   SWELL
                                AIR SEA DIR/SP/G                  HT/PER HT/PER
                 (UTC)          (F)     (DEG/KT/KT) (MB)    (MI)  (FT/S) (FT/S)
PORT ARANSAS     0900            84 83  160/ 13/ 14 1013.7S
BUOY 90 E PORT A 0900            86 85  150/ 14/ 16 1014.2R         4/ 8   2/ 8
BUOY 45 SE BAFFI 0900            84 85  150/ 16/ 17 1012.4F         5/ 7
BUOY 200 E PT IS 0900            84 86  110/ 10/ 12 1013.6F         4/ 7   3/ 7
BUOY 15 E GALVES 0900            83 85  170/ 12/ 14 1014.2R         4/ 8   3/ 8
$$



USA.gov is the U.S. government's official web portal to all federal, state and local government web resources and services.